This demonstration page uses our WeatherBlox Daily Observations layout. Learn more.

Left ArrowRight Arrow

40.92945, -100.16068

Hourly Observations for February 20, 2020

Temp ( °F °C ) Dew Point ( °F °C ) Humidity (%) Winds ( mph kmh ) Pressure ( in mb ) Visibility ( mi km ) Precip ( " mm )
12:15 am 00:15 Clear 7 -13.7 4 -15.5 86 86 NNW 5 7 30.91 1047 10 16 N/A
12:35 am 00:35 Clear 6 -14.6 3 -16.3 87 87 NNW 5 7 30.92 1047 10 16 N/A
12:55 am 00:55 Clear 5 -15 2 -16.5 88 88 WNW 6 9 30.93 1047 10 16 N/A
1:15 am 01:15 Clear 3 -15.9 1 -17.5 88 88 W 5 7 30.94 1048 10 16 N/A
1:35 am 01:35 Clear 1 -17.2 -2 -18.9 87 87 WNW 7 11 30.96 1048 10 16 N/A
1:55 am 01:55 Clear N/A -2 -19 89 89 NW 7 11 30.97 1049 10 16 N/A
2:15 am 02:15 Clear -1 -18.1 -4 -19.8 87 87 NW 8 13 30.98 1049 10 16 N/A
2:35 am 02:35 Clear -1 -18.1 -4 -19.8 87 87 NW 7 11 30.99 1049 10 16 N/A
2:55 am 02:55 Clear -1 -18.5 -4 -20.1 87 87 WNW 6 9 30.98 1049 10 16 N/A
3:15 am 03:15 Clear -2 -18.8 -5 -20.5 87 87 WNW 5 7 30.97 1049 10 16 N/A
3:35 am 03:35 Clear -3 -19.6 -7 -21.4 86 86 WNW 5 7 30.98 1049 10 16 N/A
3:55 am 03:55 Clear -3 -19.7 -7 -21.5 86 86 W 5 7 31.00 1050 10 16 N/A
4:15 am 04:15 Clear -3 -19.3 -6 -21 87 87 W 7 11 30.99 1049 10 16 N/A
4:35 am 04:35 Clear -2 -19 -5 -20.7 87 87 WNW 7 11 30.98 1049 10 16 N/A
4:55 am 04:55 Clear -3 -19.3 -6 -21.1 86 86 W 7 11 30.99 1049 10 16 N/A
5:15 am 05:15 Clear -2 -18.8 -5 -20.6 86 86 WNW 8 13 30.99 1049 10 16 N/A
5:35 am 05:35 Clear -2 -18.7 -5 -20.5 86 86 WNW 9 15 30.98 1049 10 16 N/A
5:55 am 05:55 Clear -2 -18.8 -5 -20.5 87 87 WNW 9 15 31.00 1050 10 16 N/A
6:15 am 06:15 Clear -2 -19 -5 -20.6 87 87 WNW 8 13 31.00 1050 10 16 N/A
6:35 am 06:35 Clear -3 -19.6 -6 -21.3 86 86 WNW 6 9 31.01 1050 10 16 N/A
6:55 am 06:55 Clear -3 -19.3 -5 -20.8 88 88 WNW 6 9 31.01 1050 10 16 N/A
7:15 am 07:15 Clear -4 -20 -7 -21.6 87 87 WNW 5 7 31.02 1050 7 11 N/A
7:35 am 07:35 Sunny -5 -20.3 -8 -22.1 86 86 WNW 3 6 31.02 1051 10 16 N/A
7:55 am 07:55 Sunny -5 -20.5 -8 -22.3 86 86 NW 5 7 31.03 1051 10 16 N/A
8:15 am 08:15 Sunny with Mist and Fog -3 -19.6 -6 -21.3 86 86 NW 3 6 31.02 1051 5 8 N/A
8:35 am 08:35 Sunny -1 -18.6 -5 -20.4 86 86 NW 5 7 31.01 1050 7 11 N/A
8:55 am 08:55 Sunny 1 -17.4 -2 -19.1 87 87 WNW 5 7 31.01 1050 7 11 N/A
9:15 am 09:15 Sunny with Mist and Fog 3 -16.3 -1 -18.1 86 86 WNW 6 9 31.00 1050 5 8 N/A
9:35 am 09:35 Sunny with Mist and Fog 4 -15.6 1 -17.4 86 86 WNW 5 7 30.99 1049 5 8 N/A
9:55 am 09:55 Sunny with Mist and Fog 5 -15 2 -16.8 86 86 N N/A 30.98 1049 4 6 N/A
10:15 am 10:15 Sunny 7 -14 3 -15.9 86 86 N N/A 30.96 1048 7 11 N/A
10:35 am 10:35 Sunny 9 -12.7 6 -14.5 87 87 N N/A 30.95 1048 10 16 N/A
10:55 am 10:55 Sunny 11 -11.4 8 -13.2 87 87 N N/A 30.94 1048 10 16 N/A
11:15 am 11:15 Sunny 15 -9.6 12 -11.3 88 88 N N/A 30.91 1047 10 16 N/A
11:35 am 11:35 Sunny 18 -7.6 15 -9.4 87 87 N N/A 30.89 1046 10 16 N/A
11:55 am 11:55 Sunny 22 -5.8 18 -7.7 87 87 N N/A 30.86 1045 10 16 N/A
12:15 pm 12:15 Sunny 26 -3.3 20 -6.8 77 77 WSW 8 13 30.83 1044 10 16 N/A
12:35 pm 12:35 Sunny 27 -2.7 21 -6.3 77 77 WSW 10 17 30.82 1044 10 16 N/A
12:55 pm 12:55 Sunny 28 -2 21 -6.1 74 74 WSW 10 17 30.80 1043 10 16 N/A
1:15 pm 13:15 Sunny 29 -1.6 21 -6.1 72 72 WSW 10 17 30.78 1042 10 16 N/A
1:35 pm 13:35 Sunny 30 -0.9 21 -6.1 68 68 WSW 9 15 30.76 1042 10 16 N/A
1:55 pm 13:55 Sunny 31 -0.3 21 -6.2 65 65 WSW 12 19 30.74 1041 10 16 N/A
2:15 pm 14:15 Sunny 32 undefined 20 -6.6 62 62 WSW 9 15 30.73 1041 10 16 N/A
2:35 pm 14:35 Sunny 33 0.3 20 -6.6 60 60 WSW 8 13 30.73 1040 10 16 0.01 0.25
2:55 pm 14:55 Sunny 33 0.5 19 -7.1 57 57 SSW 10 17 30.71 1040 10 16 0.01 0.25
3:15 pm 15:15 undefined 33 0.7 19 -7.4 55 55 SSW 12 19 30.70 1040 N/A N/A
3:35 pm 15:35 Sunny 33 0.8 19 -7.2 55 55 SSW 8 13 30.69 1039 10 16 N/A
3:55 pm 15:55 Sunny 34 1.1 19 -7.4 53 53 SSW 10 17 30.69 1039 10 16 N/A
4:15 pm 16:15 Sunny 34 1.1 19 -7.5 53 53 SSW 10 17 30.69 1039 10 16 N/A
4:35 pm 16:35 Sunny 34 1 18 -7.6 53 53 SW 13 20 30.69 1039 10 16 N/A
4:55 pm 16:55 Sunny 33 0.8 17 -8.1 52 52 SW 13 20 30.68 1039 10 16 N/A
5:15 pm 17:15 Sunny 33 0.5 19 -7.4 56 56 SSW 12 19 30.68 1039 10 16 N/A
5:35 pm 17:35 Sunny 33 0.3 20 -6.8 59 59 SSW 12 19 30.68 1039 10 16 N/A
5:55 pm 17:55 Sunny 32 undefined 20 -6.8 61 61 SSW 9 15 30.68 1039 10 16 N/A
6:15 pm 18:15 Sunny 31 -0.8 19 -7 63 63 S 8 13 30.69 1039 10 16 N/A
6:35 pm 18:35 Clear 27 -2.6 19 -7.3 70 70 S 8 13 30.71 1040 10 16 N/A
6:55 pm 18:55 Clear 26 -3.1 19 -7.1 74 74 S 8 13 30.71 1040 10 16 N/A
7:15 pm 19:15 Clear 25 -3.7 19 -7.2 77 77 S 8 13 30.72 1040 10 16 N/A
7:35 pm 19:35 Clear 26 -3.1 19 -7.2 74 74 S 9 15 30.71 1040 10 16 N/A
7:55 pm 19:55 Clear 27 -3 19 -7.1 74 74 S 10 17 30.70 1040 10 16 N/A
8:15 pm 20:15 Clear 27 -3 19 -7.1 74 74 S 12 19 30.70 1040 10 16 N/A
8:35 pm 20:35 Clear 26 -3.1 20 -6.8 76 76 SSW 13 20 30.70 1040 10 16 N/A
8:55 pm 20:55 Clear 26 -3.5 20 -6.4 81 81 S 9 15 30.70 1040 10 16 N/A
9:15 pm 21:15 Clear 26 -3.6 21 -6 84 84 S 9 15 30.70 1039 10 16 N/A
9:35 pm 21:35 Clear 26 -3.6 22 -5.8 85 85 S 12 19 30.70 1039 10 16 N/A
9:55 pm 21:55 Clear 25 -4 21 -6 86 86 SSW 9 15 30.70 1040 10 16 N/A
10:15 pm 22:15 Clear 25 -4 21 -6 86 86 SSW 14 22 30.70 1040 10 16 N/A
10:35 pm 22:35 Clear 25 -4 21 -6 86 86 SSW 13 20 30.70 1040 10 16 N/A
10:55 pm 22:55 Clear 25 -4 21 -5.9 87 87 SSW 14 22 30.69 1039 10 16 N/A
11:15 pm 23:15 Clear 25 -4.1 21 -6 87 87 SSW 13 20 30.69 1039 10 16 N/A
11:35 pm 23:35 Clear 24 -4.2 21 -6.3 85 85 SSW 12 19 30.68 1039 10 16 N/A
11:55 pm 23:55 Clear 24 -4.3 20 -6.5 85 85 SSW 14 22 30.67 1039 10 16 N/A

Powered by AerisWeather